Location: Martz Observatory
(42.0083°N, 79.0667°W)
Time: 18:31:29
(UTC-04:00)

Daily predictions for brighter satellites

Satellite Brightness Start Highest point End
(mag) Time Altitude Azimuth Time Altitude Azimuth Time Altitude Azimuth
CENTAUR R/B 4.4 20:33:34 10° WSW 20:39:14 36° NW 20:45:39 10° NNE
ERBS 3.6 20:38:39 10° WNW 20:41:52 37° SW 20:45:05 10° SSE
USA 186 1.7 20:41:37 10° SSE 20:44:20 52° ENE 20:47:15 10° N
ERS-1 Rocket 4.4 20:42:47 10° ESE 20:46:27 21° ENE 20:50:07 10° NNE
CZ-4B DEB 3.9 20:44:53 10° SE 20:47:27 25° ENE 20:50:01 10° NNE
Resurs 1-3 3.7 20:43:35 10° SSE 20:47:58 87° WSW 20:52:23 10° NNW
Cosmos 1862 3.9 20:44:48 10° N 20:48:36 38° ENE 20:52:24 10° SSE
YAOGAN 6 4.4 20:47:21 10° ESE 20:49:42 17° ENE 20:52:02 10° NNE
Cosmos 1655 Rocket 4.2 20:45:14 10° N 20:51:31 55° ENE 20:57:43 10° SSE
Cosmos 1455 3.7 20:48:08 10° SSW 20:51:43 41° WNW 20:55:19 10° N
USA 229 DEB 4.3 20:53:28 10° S 20:59:16 31° ESE 21:05:11 10° NE
USA 229 4.3 20:53:35 10° S 20:59:24 31° ESE 21:05:17 10° NE
Cosmos 2242 Rocket 3.6 21:00:45 10° S 21:05:16 90° N 21:09:46 10° N
Cosmos 1939 Rocket 3.1 21:04:41 10° SSE 21:08:35 50° ENE 21:12:28 10° N
Cosmos 1992 Rocket 3.9 21:05:01 10° SSW 21:10:14 79° ESE 21:15:30 10° NNE
Cosmos 2279 Rocket 4.0 21:05:05 10° S 21:11:18 73° E 21:17:30 10° NNE
Intercosmos 25 Rocket 3.2 21:09:48 10° S 21:13:01 84° W 21:17:18 10° N
SPOT 5 4.4 21:11:24 13° E 21:13:53 19° ENE 21:17:02 10° NNE
Cosmos 2263 Rocket 2.1 21:10:01 10° NNW 21:15:37 84° ENE 21:20:54 12° SSE
Atlas Centaur 2 3.6 21:11:55 10° SW 21:17:40 31° S 21:22:34 16° ESE
Lacrosse 4 Rocket 2.7 21:16:41 10° NW 21:20:45 40° WSW 21:24:53 10° S
Helios 1B rocket 2.4 21:16:50 10° NNE 21:20:58 90° ENE 21:25:04 10° SSW
Cosmos 1428 Rocket 4.4 21:18:27 10° N 21:24:36 84° E 21:30:43 10° S
USA 267 4.1 21:19:40 10° NE 21:26:00 53° NNW 21:32:18 10° WSW
Cosmos 2322 Rocket 2.9 21:20:31 10° SW 21:26:01 57° WNW 21:31:35 10° NNE
Resurs 01 Rocket 3.6 21:22:43 10° SSW 21:26:35 29° W 21:30:28 10° NW
SAR-Lupe-4 4.3 21:28:13 10° S 21:31:43 53° W 21:35:15 10° NNW
COSMOS 2428 3.5 21:29:07 14° SSE 21:33:02 29° ESE 21:37:53 10° NE
CZ-4C R/B 4.3 21:28:01 10° NNW 21:33:22 23° NE 21:39:11 10° E
Cosmos 1825 3.7 21:30:31 10° NNW 21:34:01 36° W 21:37:31 10° SSW
Cosmos 2360 Rocket 2.1 21:28:43 10° SSW 21:34:18 68° ESE 21:39:57 10° NNE
H-2A R/B 4.3 21:37:30 10° ENE 21:38:04 10° ENE 21:38:37 10° NE
OAO 3 Rocket 4.2 21:34:11 10° WSW 21:38:29 32° S 21:40:29 23° SSE
Meteor 1-14 Rocket 4.4 21:35:19 10° N 21:40:53 55° ENE 21:44:26 23° SSE
Cosmos 1908 Rocket 3.4 21:38:12 10° N 21:42:33 71° E 21:45:05 24° SSE
Sich 1 Rocket 3.5 21:39:39 10° N 21:44:09 74° E 21:46:55 23° SSE
Cosmos 968 Rocket 3.4 21:40:00 10° NNW 21:45:13 81° ENE 21:48:27 24° SSE
NOAA 11 4.4 21:43:48 24° SE 21:46:53 53° ENE 21:52:12 10° N
ATLAS 5 CENTAUR R/B 2.5 21:43:24 10° NW 21:49:26 79° WSW 21:53:36 24° SSE
Cosmos 2322 3.6 21:43:51 10° SSW 21:49:33 77° ESE 21:55:16 10° NNE
Cosmos 1606 4.4 21:56:20 18° ENE 21:56:20 18° ENE 21:58:07 10° NE
SL-16 R/B 3.9 21:51:03 10° WSW 21:56:11 35° WNW 22:01:21 10° N
Cosmos 1782 Rocket 3.6 21:52:41 10° N 21:57:01 59° E 21:58:28 38° SE
Cosmos 1867 3.6 21:53:01 10° NW 21:58:29 77° WSW 22:01:17 29° SSE
ARGOS 3.5 21:56:22 31° SE 21:58:35 49° ENE 22:03:46 10° N
Envisat 4.1 21:55:03 10° SSW 21:59:49 41° W 22:04:37 10° NNW
USA 234 3.3 21:56:41 27° SE 22:00:36 79° SW 22:07:11 10° NW
H-2A R/B 2.9 21:59:45 27° E 22:00:59 31° ENE 22:05:17 10° N
USA 245 4.3 21:59:27 32° SE 22:01:48 53° ENE 22:06:31 10° N
Terra 3.5 22:01:51 17° ENE 22:02:33 18° ENE 22:05:42 10° NNE
Okean 2 Rocket 3.2 22:04:38 10° N 22:09:07 57° E 22:10:03 47° SE
Okean 1-7 2.9 22:08:38 41° SSE 22:10:06 70° E 22:14:30 10° NNE
Abrixas rocket 4.1 22:08:11 10° NW 22:11:01 26° N 22:12:17 20° NE
Cosmos 2333 4.3 22:08:24 24° S 22:11:42 55° ESE 22:17:20 10° NNE
Cosmos 2237 Rocket 3.8 22:14:04 18° ENE 22:14:04 18° ENE 22:16:23 10° NE
Cosmos 2333 Rocket 3.2 22:13:24 28° E 22:13:24 28° E 22:17:36 10° NE
Cosmos 2278 Rocket 3.5 22:11:21 10° N 22:16:06 27° NE 22:17:43 23° E
Cosmos 1844 Rocket 2.8 22:12:06 10° NNW 22:17:37 59° ENE 22:19:16 42° ESE
YAOGAN 6 4.2 22:21:30 22° SW 22:23:01 31° W 22:26:16 10° NNW
ERS-1 Rocket 3.7 22:22:04 24° SSW 22:24:51 49° W 22:29:45 10° NNW
Nimbus 7 Rocket 4.4 22:19:16 10° NNE 22:25:11 64° ESE 22:27:31 37° S
MetOp-A 4.3 22:25:28 34° S 22:27:50 69° WSW 22:33:11 10° NNW
SeaSat 1 2.4 22:27:56 53° ESE 22:28:57 69° ENE 22:33:53 10° NNW
Milstar 3 4.3 22:26:32 10° WSW 22:31:02 17° SSW 22:31:42 17° SSW
Cosmos 1782 2.8 22:36:14 77° NNE 22:36:14 77° NNE 22:40:00 10° N
Cosmos 2219 Rocket 2.1 22:37:34 56° SE 22:38:04 58° ESE 22:43:35 10° NNE
Cosmos 2151 Rocket 3.7 22:38:50 10° N 22:42:57 62° ENE 22:42:57 62° ENE
NOSS 3-1 (C) 3.2 22:42:31 47° S 22:44:08 66° ESE 22:50:29 10° NE
CARTOSAT-1 4.4 22:46:03 39° NE 22:46:03 39° NE 22:49:32 10° N
SPOT 1/Viking Rocket 3.5 22:47:40 61° S 22:48:36 81° WSW 22:53:51 10° NNW
USA 229 DEB 4.3 22:43:11 10° SW 22:49:52 56° NW 22:56:44 10° NNE
USA 229 4.3 22:43:16 10° SW 22:49:58 57° NW 22:56:50 10° NNE
SPOT 5 3.4 22:50:39 43° SW 22:51:37 50° W 22:56:08 10° NNW
Cosmos 1898 Rocket 4.4 22:47:19 10° N 22:52:01 34° ENE 22:52:04 34° ENE
Cosmos 1346 Rocket 4.3 22:53:59 28° NNE 22:53:59 28° NNE 22:56:05 10° NNE
Meteor 1-27 Rocket 3.7 22:53:16 58° E 22:53:16 58° E 22:58:45 10° NNE
Iridium 4 Rocket 4.4 22:50:24 10° NNE 22:52:52 28° NE 22:52:52 28° NE
NOSS 3-1 (A) 3.3 23:00:30 63° ESE 23:00:30 63° ESE 23:06:36 10° NE
Okean 1 Rocket 4.4 22:56:55 10° N 22:59:53 31° NE 22:59:53 31° NE
NOSS 0 Rocket 3.8 23:01:38 64° ESE 23:01:40 64° ESE 23:07:45 10° NNE
ASTEX 1 3.4 23:02:21 71° NE 23:02:21 71° NE 23:07:05 10° N
IGS 5A 4.3 23:03:41 43° NNE 23:03:41 43° NNE 23:06:43 10° N
Cosmos 1633 4.0 23:02:27 10° N 23:04:45 36° NNW 23:04:45 36° NNW
Atlas Centaur 2 3.7 23:00:00 10° WSW 23:05:13 32° SSW 23:05:13 32° SSW
H-2A R/B 2.6 23:14:15 55° NNW 23:14:15 55° NNW 23:17:43 10° NNW
COSMOS 2428 3.8 23:11:45 10° SW 23:17:06 41° WNW 23:22:30 10° NNE
Cosmos 1553 Rocket 3.9 23:17:12 67° SSW 23:18:08 85° W 23:24:23 10° N
Meteor 1-11 Rocket 3.6 23:12:56 10° N 23:18:30 87° W 23:18:30 87° W
SL-08 R/B 4.3 23:13:25 10° N 23:19:34 82° W 23:20:08 74° SSW
CZ-4C R/B 2.9 23:15:52 10° NNW 23:23:02 76° NE 23:24:27 61° ESE
Landsat 7 4.4 23:25:08 51° W 23:25:08 51° W 23:29:24 10° NNW
Cosmos 1980 3.7 23:28:48 78° N 23:28:48 78° N 23:34:06 10° NNE
Cosmos 1844 4.2 23:24:25 10° NW 23:29:49 47° WSW 23:29:52 47° WSW
ATLAS 3B R/B 4.3 23:25:26 10° NNW 23:31:03 26° NE 23:33:55 19° ENE
SL-16 R/B 3.6 23:36:35 27° ENE 23:36:35 27° ENE 23:39:29 10° NE
SL-19 R/B 4.4 23:28:19 10° NNE 23:34:23 75° WNW 23:34:49 71° WSW
Geosat 4.3 23:33:26 10° NNE 23:37:45 62° N 23:37:45 62° N
Terra 2.7 23:40:44 46° WNW 23:40:44 46° WNW 23:44:32 10° NNW
CZ-4B R/B 4.2 23:35:32 10° NNE 23:38:52 46° NNE 23:38:52 46° NNE
H-2A R/B 3.3 23:40:24 31° W 23:40:24 31° W 23:44:44 10° NW
Cosmos 883 Rocket 4.5 23:47:06 73° NE 23:47:06 73° NE 23:52:41 10° N
S3M 4.5 23:47:54 48° WSW 23:48:51 52° WNW 23:54:55 10° N
Cosmos 2298 Rocket 4.5 23:43:52 10° NNW 23:48:12 60° NNW 23:48:12 60° NNW
